Alexandria, LA

6:33 AM CDT on May 24, 2017 (GMT -0500)
Alexandria International

Weather History for KAEX - January, 2013

Change the Weather History Date:

Friday, January 4, 2013

  Actual Average Record
Temperature  
Mean Temperature 44 °F 49 °F  
Max Temperature 50 °F 59 °F 81 °F (1989)
Min Temperature 38 °F 39 °F 11 °F (1911)
Degree Days  
Heating Degree Days 21 16  
Month to date heating degree days 76 64  
Since 1 July heating degree days 785 853  
Moisture  
Dew Point 33 °F    
Average Humidity 64    
Maximum Humidity 82    
Minimum Humidity 46    
Precipitation  
Precipitation 0.01 in 0.17 in 2.25 in (2007)
Month to date precipitation 2.39 0.58  
Year to date precipitation 2.39 0.58  
Snow  
Snow 0.00 in - 0.00 in ()
Month to date snowfall 0.0  
Since 1 July snowfall 0.0  
Snow Depth 0.00 in    
Sea Level Pressure  
Sea Level Pressure 30.44 in    
Wind  
Wind Speed 4 mph (NNE)    
Max Wind Speed 9 mph    
Max Gust Speed 16 mph    
Visibility 10 miles    
Events      
T = Trace of Precipitation, MM = Missing Value Source: NWS Daily Summary

Daily Weather History Graph

Daily Weather History Graph

Search for Another Location

Airport or City:

Trip Planner

Search our weather history database for the weather conditions in past years. The results will help you decide how hot, cold, wet, or windy it might be!

Date:

Astronomy

Jan. 04, 2013 Rise Set
Actual Time 7:09 AM CST 5:21 PM CST
Civil Twilight 6:43 AM CST 5:47 PM CST
Nautical Twilight 6:13 AM CST 6:17 PM CST
Astronomical Twilight 5:43 AM CST 6:47 PM CST
Moon No Moon Rise 11:22 AM CST (1/4)
Length of Visible Light 11h 04m
Length of Day
10h 11m
Waning Gibbous, 55% of the Moon is Illuminated
Jan 4
Waning Gibbous
Jan 4
Last Quarter
Jan 11
New
Jan 18
First Quarter
Jan 26
Full

Hourly Weather History & Observations

Time (CST) Temp. Windchill Dew Point Humidity Pressure Visibility Wind Dir Wind Speed Gust Speed Precip Events Conditions
12:53 AM 41.0 °F 38.0 °F 32.0 °F 70% 30.41 in 10.0 mi ENE 4.6 mph - N/A   Mostly Cloudy
1:53 AM 39.9 °F 35.1 °F 32.0 °F 73% 30.40 in 10.0 mi NE 6.9 mph - N/A   Scattered Clouds
2:53 AM 37.9 °F 35.5 °F 32.0 °F 79% 30.42 in 10.0 mi NE 3.5 mph - N/A   Partly Cloudy
3:53 AM 37.9 °F 32.7 °F 32.0 °F 79% 30.42 in 10.0 mi NNE 6.9 mph - N/A   Overcast
4:53 AM 39.0 °F - 33.1 °F 79% 30.44 in 10.0 mi Calm Calm - N/A   Overcast
5:53 AM 39.0 °F - 33.1 °F 79% 30.44 in 10.0 mi Calm Calm - N/A   Overcast
6:53 AM 39.9 °F 37.8 °F 33.1 °F 77% 30.45 in 10.0 mi North 3.5 mph - N/A   Overcast
7:51 AM 39.2 °F - 33.8 °F 81% 30.47 in 10.0 mi Calm Calm - N/A   Overcast
7:53 AM 39.9 °F - 33.1 °F 77% 30.49 in 10.0 mi Calm Calm - N/A   Overcast
8:53 AM 42.1 °F 37.7 °F 33.1 °F 70% 30.51 in 10.0 mi North 6.9 mph - N/A   Mostly Cloudy
9:53 AM 44.1 °F 40.8 °F 33.1 °F 65% 30.53 in 10.0 mi NE 5.8 mph - N/A   Overcast
10:53 AM 46.9 °F - 32.0 °F 56% 30.51 in 10.0 mi NE 4.6 mph - N/A   Overcast
11:53 AM 48.0 °F - 30.9 °F 52% 30.48 in 10.0 mi Calm Calm - N/A   Overcast
12:53 PM 50.0 °F - 30.9 °F 48% 30.44 in 10.0 mi North 3.5 mph - N/A   Mostly Cloudy
1:53 PM 48.9 °F - 33.1 °F 54% 30.41 in 10.0 mi NNW 9.2 mph - 0.00 in   Overcast
2:53 PM 48.9 °F - 30.9 °F 50% 30.41 in 10.0 mi North 4.6 mph - 0.00 in   Overcast
3:53 PM 48.0 °F - 36.0 °F 63% 30.41 in 10.0 mi North 5.8 mph - 0.01 in   Overcast
4:53 PM 48.0 °F - 32.0 °F 54% 30.41 in 10.0 mi North 6.9 mph - N/A   Overcast
5:53 PM 46.9 °F - 32.0 °F 56% 30.42 in 10.0 mi NNE 6.9 mph - N/A   Overcast
6:53 PM 45.0 °F 43.5 °F 32.0 °F 60% 30.43 in 10.0 mi NNE 3.5 mph - N/A   Clear
8:53 PM 44.1 °F 42.5 °F 35.1 °F 71% 30.42 in 10.0 mi ENE 3.5 mph - N/A   Overcast
9:53 PM 45.0 °F - 35.1 °F 68% 30.42 in 10.0 mi Calm Calm - N/A   Overcast
10:53 PM 44.1 °F - 35.1 °F 71% 30.38 in 10.0 mi Calm Calm - N/A   Overcast
11:53 PM 44.1 °F 42.5 °F 36.0 °F 73% 30.36 in 10.0 mi North 3.5 mph - N/A   Overcast